When you browse on this site, cookies collect data to enhance your experience and personalize the content and advertising you see.
Visit our Privacy Policy to learn more. By continuing to use the site, you agree to this use of cookies and data.
  • In Romania
  • List of Countries
  • For 7 days
  • Water Temperature
  • Satellite Maps
  • Weather Map
  • Weather Widgets
  • user-avatar
    Login

    Hourly Weather Tirana

    Today, 16 February, Saturday

    Time Temperature Precipitation Wind Pressure Humidity
    00:00 +2°C° 0 mm 6 mps 762 mmHg 62%
    01:00 +2°C° 0 mm 5 mps 762 mmHg 64%
    02:00 +1°C° 0 mm 5 mps 762 mmHg 63%
    03:00 +1°C° 0 mm 5 mps 762 mmHg 62%
    04:00 +1°C° 0 mm 6 mps 763 mmHg 61%
    05:00 +1°C° 0 mm 5 mps 763 mmHg 61%
    06:00 +1°C° 0 mm 5 mps 763 mmHg 60%
    07:00 +1°C° 0 mm 5 mps 763 mmHg 60%
    08:00 +3°C° 0 mm 5 mps 763 mmHg 54%
    09:00 +6°C° 0 mm 4 mps 763 mmHg 47%
    10:00 +8°C° 0 mm 4 mps 763 mmHg 41%
    11:00 +10°C° 0 mm 4 mps 763 mmHg 38%
    12:00 +12°C° 0 mm 3 mps 763 mmHg 36%
    13:00 +13°C° 0 mm 3 mps 763 mmHg 33%
    14:00 +13°C° 0 mm 3 mps 763 mmHg 36%
    15:00 +13°C° 0 mm 4 mps 762 mmHg 39%
    16:00 +13°C° 0 mm 5 mps 762 mmHg 42%
    17:00 +10°C° 0 mm 5 mps 763 mmHg 47%
    18:00 +9°C° 0 mm 5 mps 763 mmHg 52%
    19:00 +7°C° 0 mm 5 mps 763 mmHg 57%
    20:00 +7°C° 0 mm 5 mps 763 mmHg 57%
    21:00 +6°C° 0 mm 4 mps 763 mmHg 56%
    22:00 +7°C° 0 mm 3 mps 763 mmHg 56%
    23:00 +5°C° 0 mm 3 mps 763 mmHg 56%

    Tomorrow, 17 February, Sunday

    Time Temperature Precipitation Wind Pressure Humidity
    00:00 +6°C° 0 mm 2 mps 763 mmHg 55%
    01:00 +6°C° 0 mm 2 mps 763 mmHg 55%
    02:00 +5°C° 0 mm 2 mps 763 mmHg 54%
    03:00 +5°C° 0 mm 2 mps 763 mmHg 53%
    04:00 +6°C° 0 mm 1 mps 763 mmHg 52%
    05:00 +6°C° 0 mm 1 mps 763 mmHg 51%
    06:00 +6°C° 0 mm 1 mps 763 mmHg 50%
    07:00 +6°C° 0 mm 1 mps 763 mmHg 50%
    08:00 +8°C° 0 mm 1 mps 763 mmHg 44%
    09:00 +10°C° 0 mm 1 mps 763 mmHg 39%
    10:00 +11°C° 0 mm 0 mps 762 mmHg 34%
    11:00 +13°C° 0 mm 1 mps 762 mmHg 34%
    12:00 +14°C° 0 mm 2 mps 762 mmHg 34%
    13:00 +14°C° 0 mm 3 mps 762 mmHg 34%
    14:00 +13°C° 0 mm 3 mps 761 mmHg 39%
    15:00 +13°C° 0 mm 3 mps 761 mmHg 44%
    16:00 +12°C° 0 mm 3 mps 761 mmHg 49%
    17:00 +11°C° 0 mm 3 mps 761 mmHg 55%
    18:00 +10°C° 0 mm 2 mps 761 mmHg 61%
    19:00 +8°C° 0 mm 2 mps 761 mmHg 68%
    20:00 +8°C° 0 mm 2 mps 761 mmHg 68%
    21:00 +9°C° 0 mm 1 mps 761 mmHg 68%
    22:00 +9°C° 0 mm 1 mps 761 mmHg 68%
    23:00 +8°C° 0 mm 1 mps 761 mmHg 68%

    Day after tomorrow, 18 February, Monday

    Time Temperature Precipitation Wind Pressure Humidity
    00:00 +8°C° 0 mm 1 mps 761 mmHg 67%
    01:00 +7°C° 0 mm 0 mps 761 mmHg 67%
    02:00 +8°C° 0 mm 1 mps 761 mmHg 66%
    03:00 +8°C° 0 mm 1 mps 761 mmHg 66%
    04:00 +7°C° 0 mm 1 mps 760 mmHg 65%
    05:00 +7°C° 0 mm 1 mps 760 mmHg 64%
    06:00 +7°C° 0 mm 1 mps 760 mmHg 63%
    07:00 +7°C° 0 mm 1 mps 760 mmHg 63%
    08:00 +9°C° 0 mm 1 mps 760 mmHg 57%
    09:00 +11°C° 0 mm 1 mps 760 mmHg 52%
    10:00 +13°C° 0 mm 1 mps 760 mmHg 46%
    11:00 +14°C° 0 mm 1 mps 760 mmHg 45%
    12:00 +15°C° 0 mm 1 mps 760 mmHg 45%
    13:00 +15°C° 0 mm 1 mps 760 mmHg 44%
    14:00 +15°C° 0 mm 2 mps 759 mmHg 47%
    15:00 +15°C° 0 mm 2 mps 759 mmHg 50%
    16:00 +14°C° 0 mm 2 mps 759 mmHg 54%
    17:00 +13°C° 0 mm 1 mps 759 mmHg 59%
    18:00 +11°C° 0 mm 1 mps 759 mmHg 65%
    19:00 +10°C° 0 mm 1 mps 759 mmHg 71%
    20:00 +10°C° 0 mm 1 mps 760 mmHg 72%
    21:00 +9°C° 0 mm 1 mps 760 mmHg 72%
    22:00 +9°C° 0 mm 1 mps 760 mmHg 73%
    23:00 +9°C° 0 mm 1 mps 760 mmHg 73%

    19 February, Tuesday

    Time Temperature Precipitation Wind Pressure Humidity
    00:00 +9°C° 0 mm 1 mps 760 mmHg 73%
    01:00 +8°C° 0 mm 1 mps 760 mmHg 74%
    02:00 +8°C° 0 mm 1 mps 760 mmHg 74%
    03:00 +8°C° 0 mm 1 mps 760 mmHg 74%
    04:00 +8°C° 0 mm 1 mps 760 mmHg 74%
    05:00 +7°C° 0 mm 2 mps 760 mmHg 73%
    06:00 +6°C° 0 mm 2 mps 760 mmHg 72%
    07:00 +6°C° 0 mm 2 mps 760 mmHg 72%
    08:00 +8°C° 0 mm 2 mps 760 mmHg 65%
    09:00 +10°C° 0 mm 2 mps 760 mmHg 58%
    10:00 +13°C° 0 mm 1 mps 760 mmHg 51%
    11:00 +14°C° 0 mm 1 mps 760 mmHg 50%
    12:00 +15°C° 0 mm 1 mps 760 mmHg 48%
    13:00 +15°C° 0 mm 1 mps 759 mmHg 47%
    14:00 +15°C° 0 mm 1 mps 759 mmHg 51%
    15:00 +15°C° 0 mm 1 mps 759 mmHg 54%
    16:00 +14°C° 0 mm 2 mps 759 mmHg 58%
    17:00 +13°C° 0 mm 1 mps 759 mmHg 65%
    18:00 +12°C° 0 mm 1 mps 760 mmHg 73%
    19:00 +9°C° 0 mm 0 mps 760 mmHg 80%
    20:00 +9°C° 0 mm 0 mps 760 mmHg 81%
    21:00 +9°C° 0 mm 0 mps 760 mmHg 82%
    22:00 +9°C° 0 mm 1 mps 760 mmHg 82%
    23:00 +9°C° 0 mm 1 mps 760 mmHg 83%

    20 February, Wednesday

    Time Temperature Precipitation Wind Pressure Humidity
    00:00 +9°C° 0 mm 1 mps 760 mmHg 83%
    01:00 +8°C° 0 mm 1 mps 760 mmHg 83%
    02:00 +8°C° 0 mm 1 mps 760 mmHg 83%
    03:00 +7°C° 0 mm 2 mps 760 mmHg 82%
    04:00 +7°C° 0 mm 2 mps 760 mmHg 82%
    05:00 +6°C° 0 mm 2 mps 760 mmHg 80%
    06:00 +6°C° 0 mm 2 mps 760 mmHg 78%
    07:00 +6°C° 0 mm 2 mps 760 mmHg 76%
    08:00 +9°C° 0 mm 1 mps 761 mmHg 68%
    09:00 +11°C° 0 mm 1 mps 761 mmHg 61%
    10:00 +13°C° 0 mm 1 mps 761 mmHg 54%
    11:00 +14°C° 0 mm 1 mps 761 mmHg 53%
    12:00 +14°C° 0 mm 1 mps 760 mmHg 52%
    13:00 +15°C° 0 mm 2 mps 760 mmHg 52%
    14:00 +15°C° 0 mm 2 mps 760 mmHg 55%
    15:00 +14°C° 0 mm 2 mps 760 mmHg 58%
    16:00 +14°C° 0 mm 2 mps 760 mmHg 62%
    17:00 +13°C° 0 mm 2 mps 760 mmHg 69%
    18:00 +10°C° 0 mm 2 mps 761 mmHg 75%
    19:00 +10°C° 0 mm 1 mps 761 mmHg 82%
    20:00 +10°C° 0 mm 1 mps 761 mmHg 83%
    21:00 +9°C° 0 mm 1 mps 761 mmHg 84%
    22:00 +9°C° 0 mm 1 mps 761 mmHg 85%
    23:00 +9°C° 0 mm 1 mps 761 mmHg 84%

    21 February, Thursday

    Time Temperature Precipitation Wind Pressure Humidity
    00:00 +9°C° 0 mm 1 mps 761 mmHg 84%
    01:00 +8°C° 0 mm 1 mps 762 mmHg 84%
    02:00 +8°C° 0 mm 1 mps 762 mmHg 83%
    03:00 +8°C° 0 mm 1 mps 762 mmHg 82%
    04:00 +8°C° 0 mm 1 mps 762 mmHg 82%
    05:00 +8°C° 0 mm 1 mps 762 mmHg 80%
    06:00 +7°C° 0 mm 1 mps 762 mmHg 78%
    07:00 +7°C° 0 mm 1 mps 762 mmHg 76%
    08:00 +9°C° 0 mm 1 mps 762 mmHg 69%
    09:00 +11°C° 0 mm 1 mps 762 mmHg 62%
    10:00 +12°C° 0 mm 0 mps 762 mmHg 56%
    11:00 +14°C° 0 mm 1 mps 761 mmHg 55%
    12:00 +15°C° 0 mm 2 mps 761 mmHg 55%
    13:00 +14°C° 0 mm 3 mps 761 mmHg 55%
    14:00 +14°C° 0 mm 3 mps 761 mmHg 59%
    15:00 +13°C° 0 mm 3 mps 761 mmHg 64%
    16:00 +13°C° 0 mm 4 mps 760 mmHg 69%
    17:00 +12°C° 0 mm 3 mps 761 mmHg 75%
    18:00 +10°C° 0 mm 3 mps 761 mmHg 81%
    19:00 +9°C° 0 mm 2 mps 761 mmHg 87%
    20:00 +9°C° 0 mm 2 mps 761 mmHg 88%
    21:00 +10°C° 0 mm 1 mps 761 mmHg 88%
    22:00 +9°C° 0 mm 1 mps 762 mmHg 88%
    23:00 +9°C° 0 mm 1 mps 762 mmHg 88%
    Show more